Time,TemperatureF,DewpointF,PressureIn,WindDirection,WindDirectionDegrees,WindSpeedMPH,WindSpeedGustMPH,Humidity,HourlyPrecipIn,Conditions,Clouds,dailyrainin,SoftwareType,DateUTC
2013-03-28 00:00:00,43.9,27.9,30.23,NNW,333,0.0,1.0,53,0.00,,---,0.00,VWS V14.00,2013-03-28 04:00:00,
2013-03-28 00:05:00,43.9,27.4,30.23,NNW,331,0.0,4.0,52,0.00,,---,0.00,VWS V14.00,2013-03-28 04:05:00,
2013-03-28 00:10:00,44.0,27.5,30.23,NNW,330,0.0,4.0,52,0.00,,---,0.00,VWS V14.00,2013-03-28 04:10:00,
2013-03-28 00:15:00,43.9,27.4,30.23,NNW,330,0.0,4.0,52,0.00,,---,0.00,VWS V14.00,2013-03-28 04:15:00,
2013-03-28 00:20:00,43.9,27.9,30.23,NNW,329,0.0,4.0,53,0.00,,---,0.00,VWS V14.00,2013-03-28 04:20:00,
2013-03-28 00:25:00,43.8,27.3,30.23,NNW,329,0.0,4.0,52,0.00,,---,0.00,VWS V14.00,2013-03-28 04:25:00,
2013-03-28 00:30:00,43.7,27.7,30.23,NW,325,2.0,4.0,53,0.00,,---,0.00,VWS V14.00,2013-03-28 04:30:00,
2013-03-28 00:35:00,43.6,27.6,30.23,NW,323,2.0,5.0,53,0.00,,---,0.00,VWS V14.00,2013-03-28 04:35:00,
2013-03-28 00:40:00,43.6,27.6,30.23,NW,323,0.0,5.0,53,0.00,,---,0.00,VWS V14.00,2013-03-28 04:40:00,
2013-03-28 00:45:00,43.6,27.6,30.23,NW,324,0.0,6.0,53,0.00,,---,0.00,VWS V14.00,2013-03-28 04:45:00,
2013-03-28 00:50:00,43.5,27.5,30.23,NW,323,0.0,6.0,53,0.00,,---,0.00,VWS V14.00,2013-03-28 04:50:00,
2013-03-28 00:55:00,43.4,27.4,30.22,NW,323,2.0,6.0,53,0.00,,---,0.00,VWS V14.00,2013-03-28 04:55:00,
2013-03-28 01:00:00,43.2,27.7,30.23,NW,321,0.0,2.0,54,0.00,,---,0.00,VWS V14.00,2013-03-28 05:00:00,
2013-03-28 01:05:00,43.1,27.1,30.23,NW,321,0.0,2.0,53,0.00,,---,0.00,VWS V14.00,2013-03-28 05:05:00,
2013-03-28 01:10:00,42.9,27.4,30.22,NW,321,0.0,4.0,54,0.00,,---,0.00,VWS V14.00,2013-03-28 05:10:00,
2013-03-28 01:15:00,42.8,27.3,30.22,NW,323,0.0,5.0,54,0.00,,---,0.00,VWS V14.00,2013-03-28 05:15:00,
2013-03-28 01:20:00,42.8,27.3,30.22,NW,323,0.0,5.0,54,0.00,,---,0.00,VWS V14.00,2013-03-28 05:20:00,
2013-03-28 01:25:00,42.7,27.2,30.23,NW,323,0.0,1.0,54,0.00,,---,0.00,VWS V14.00,2013-03-28 05:25:00,
2013-03-28 01:30:00,42.6,27.1,30.22,NW,323,0.0,4.0,54,0.00,,---,0.00,VWS V14.00,2013-03-28 05:30:00,
2013-03-28 01:35:00,42.6,27.1,30.23,NW,323,0.0,4.0,54,0.00,,---,0.00,VWS V14.00,2013-03-28 05:35:00,
2013-03-28 01:40:00,42.5,27.0,30.23,NW,323,2.0,5.0,54,0.00,,---,0.00,VWS V14.00,2013-03-28 05:40:00,
2013-03-28 01:45:00,42.4,27.4,30.23,NW,323,2.0,5.0,55,0.00,,---,0.00,VWS V14.00,2013-03-28 05:45:00,
2013-03-28 01:50:00,42.2,27.2,30.24,NNW,347,4.0,7.0,55,0.00,,---,0.00,VWS V14.00,2013-03-28 05:50:00,
2013-03-28 01:55:00,42.1,27.5,30.24,NNW,347,0.0,7.0,56,0.00,,---,0.00,VWS V14.00,2013-03-28 05:55:00,
2013-03-28 02:00:00,42.0,27.5,30.23,NNW,348,0.0,2.0,56,0.00,,---,0.00,VWS V14.00,2013-03-28 06:00:00,
2013-03-28 02:05:00,41.8,27.7,30.24,NNW,348,0.0,2.0,57,0.00,,---,0.00,VWS V14.00,2013-03-28 06:05:00,
2013-03-28 02:10:00,41.5,27.8,30.24,NNW,348,0.0,2.0,58,0.00,,---,0.00,VWS V14.00,2013-03-28 06:10:00,
2013-03-28 02:15:00,41.1,27.9,30.23,North,355,0.0,5.0,59,0.00,,---,0.00,VWS V14.00,2013-03-28 06:15:00,
2013-03-28 02:20:00,41.0,28.2,30.24,NE,34,1.0,6.0,60,0.00,,---,0.00,VWS V14.00,2013-03-28 06:20:00,
2013-03-28 02:25:00,40.8,28.0,30.24,NNE,30,0.0,6.0,60,0.00,,---,0.00,VWS V14.00,2013-03-28 06:25:00,
2013-03-28 02:30:00,40.6,27.8,30.24,NNE,25,0.0,6.0,60,0.00,,---,0.00,VWS V14.00,2013-03-28 06:30:00,
2013-03-28 02:35:00,40.5,28.1,30.24,NE,37,2.0,6.0,61,0.00,,---,0.00,VWS V14.00,2013-03-28 06:35:00,
2013-03-28 02:40:00,40.4,28.0,30.24,NE,50,1.0,6.0,61,0.00,,---,0.00,VWS V14.00,2013-03-28 06:40:00,
2013-03-28 02:45:00,40.2,27.4,30.24,NE,46,5.0,6.0,60,0.00,,---,0.00,VWS V14.00,2013-03-28 06:45:00,
2013-03-28 02:50:00,40.2,27.4,30.24,NE,46,1.0,6.0,60,0.00,,---,0.00,VWS V14.00,2013-03-28 06:50:00,
2013-03-28 02:55:00,40.0,27.2,30.25,NE,46,0.0,6.0,60,0.00,,---,0.00,VWS V14.00,2013-03-28 06:55:00,
2013-03-28 03:00:00,39.9,26.8,30.24,NE,56,2.0,5.0,59,0.00,,---,0.00,VWS V14.00,2013-03-28 07:00:00,
2013-03-28 03:05:00,39.9,26.8,30.24,NE,48,1.0,6.0,59,0.00,,---,0.00,VWS V14.00,2013-03-28 07:05:00,
2013-03-28 03:10:00,39.7,26.6,30.24,NE,44,0.0,6.0,59,0.00,,---,0.00,VWS V14.00,2013-03-28 07:10:00,
2013-03-28 03:15:00,39.6,26.9,30.24,ENE,66,3.0,7.0,60,0.00,,---,0.00,VWS V14.00,2013-03-28 07:15:00,
2013-03-28 03:20:00,39.5,26.4,30.24,ENE,66,0.0,7.0,59,0.00,,---,0.00,VWS V14.00,2013-03-28 07:20:00,
2013-03-28 03:25:00,39.5,26.4,30.24,ENE,65,2.0,7.0,59,0.00,,---,0.00,VWS V14.00,2013-03-28 07:25:00,
2013-03-28 03:30:00,39.5,26.4,30.24,ENE,64,1.0,3.0,59,0.00,,---,0.00,VWS V14.00,2013-03-28 07:30:00,
2013-03-28 03:35:00,39.5,26.4,30.24,NE,55,0.0,5.0,59,0.00,,---,0.00,VWS V14.00,2013-03-28 07:35:00,
2013-03-28 03:40:00,39.4,25.9,30.24,NE,55,0.0,5.0,58,0.00,,---,0.00,VWS V14.00,2013-03-28 07:40:00,
2013-03-28 03:45:00,39.3,25.8,30.24,ENE,61,0.0,5.0,58,0.00,,---,0.00,VWS V14.00,2013-03-28 07:45:00,
2013-03-28 03:50:00,39.2,26.1,30.24,ENE,61,0.0,5.0,59,0.00,,---,0.00,VWS V14.00,2013-03-28 07:50:00,
2013-03-28 03:55:00,39.0,25.9,30.24,ENE,61,0.0,0.0,59,0.00,,---,0.00,VWS V14.00,2013-03-28 07:55:00,
2013-03-28 04:00:00,38.8,25.7,30.24,ENE,61,0.0,0.0,59,0.00,,---,0.00,VWS V14.00,2013-03-28 08:00:00,
2013-03-28 04:05:00,38.6,26.3,30.24,ENE,62,0.0,2.0,61,0.00,,---,0.00,VWS V14.00,2013-03-28 08:05:00,
2013-03-28 04:10:00,38.2,26.0,30.25,ENE,62,0.0,2.0,61,0.00,,---,0.00,VWS V14.00,2013-03-28 08:10:00,
2013-03-28 04:15:00,37.9,25.7,30.25,ENE,62,0.0,2.0,61,0.00,,---,0.00,VWS V14.00,2013-03-28 08:15:00,
2013-03-28 04:20:00,37.6,25.8,30.25,ENE,62,0.0,2.0,62,0.00,,---,0.00,VWS V14.00,2013-03-28 08:20:00,
2013-03-28 04:25:00,37.3,25.9,30.25,ENE,62,0.0,2.0,63,0.00,,---,0.00,VWS V14.00,2013-03-28 08:25:00,
2013-03-28 04:30:00,37.0,26.0,30.25,ENE,62,0.0,0.0,64,0.00,,---,0.00,VWS V14.00,2013-03-28 08:30:00,
2013-03-28 04:35:00,36.6,26.0,30.25,ENE,62,0.0,0.0,65,0.00,,---,0.00,VWS V14.00,2013-03-28 08:35:00,
2013-03-28 04:40:00,36.4,25.8,30.25,ENE,62,0.0,0.0,65,0.00,,---,0.00,VWS V14.00,2013-03-28 08:40:00,
2013-03-28 04:45:00,36.1,25.5,30.25,ENE,62,0.0,0.0,65,0.00,,---,0.00,VWS V14.00,2013-03-28 08:45:00,
2013-03-28 04:50:00,35.8,25.6,30.25,ENE,62,0.0,0.0,66,0.00,,---,0.00,VWS V14.00,2013-03-28 08:50:00,
2013-03-28 04:55:00,35.5,25.3,30.25,ENE,62,0.0,0.0,66,0.00,,---,0.00,VWS V14.00,2013-03-28 08:55:00,
2013-03-28 05:00:00,35.2,25.7,30.25,ENE,62,0.0,0.0,68,0.00,,---,0.00,VWS V14.00,2013-03-28 09:00:00,
2013-03-28 05:05:00,34.8,25.7,30.25,ENE,62,0.0,0.0,69,0.00,,---,0.00,VWS V14.00,2013-03-28 09:05:00,
2013-03-28 05:10:00,34.5,25.7,30.25,ENE,62,0.0,0.0,70,0.00,,---,0.00,VWS V14.00,2013-03-28 09:10:00,
2013-03-28 05:15:00,34.1,25.7,30.25,ENE,62,0.0,0.0,71,0.00,,---,0.00,VWS V14.00,2013-03-28 09:15:00,
2013-03-28 05:20:00,33.9,25.5,30.25,ENE,62,0.0,0.0,71,0.00,,---,0.00,VWS V14.00,2013-03-28 09:20:00,
2013-03-28 05:25:00,33.6,25.5,30.25,ENE,62,0.0,0.0,72,0.00,,---,0.00,VWS V14.00,2013-03-28 09:25:00,
2013-03-28 05:30:00,33.4,25.7,30.25,ENE,62,0.0,0.0,73,0.00,,---,0.00,VWS V14.00,2013-03-28 09:30:00,
2013-03-28 05:35:00,33.2,25.8,30.25,ENE,62,0.0,0.0,74,0.00,,---,0.00,VWS V14.00,2013-03-28 09:35:00,
2013-03-28 05:40:00,33.1,26.4,30.26,ENE,62,0.0,0.0,76,0.00,,---,0.00,VWS V14.00,2013-03-28 09:40:00,
2013-03-28 05:45:00,32.9,26.5,30.26,ENE,62,0.0,0.0,77,0.00,,---,0.00,VWS V14.00,2013-03-28 09:45:00,
2013-03-28 05:50:00,32.8,26.4,30.26,ENE,62,0.0,0.0,77,0.00,,---,0.00,VWS V14.00,2013-03-28 09:50:00,
2013-03-28 05:55:00,32.6,26.2,30.26,ENE,62,0.0,0.0,77,0.00,,---,0.00,VWS V14.00,2013-03-28 09:55:00,
2013-03-28 06:00:00,32.5,26.1,30.26,ENE,62,0.0,0.0,77,0.00,,---,0.00,VWS V14.00,2013-03-28 10:00:00,
2013-03-28 06:05:00,32.2,25.8,30.26,ENE,62,0.0,0.0,77,0.00,,---,0.00,VWS V14.00,2013-03-28 10:05:00,
2013-03-28 06:10:00,32.0,25.6,30.26,ENE,62,0.0,0.0,77,0.00,,---,0.00,VWS V14.00,2013-03-28 10:10:00,
2013-03-28 06:15:00,31.8,25.7,30.27,ENE,62,0.0,0.0,78,0.00,,---,0.00,VWS V14.00,2013-03-28 10:15:00,
2013-03-28 06:20:00,31.6,25.5,30.27,ENE,62,0.0,0.0,78,0.00,,---,0.00,VWS V14.00,2013-03-28 10:20:00,
2013-03-28 06:25:00,31.5,25.8,30.27,ENE,62,0.0,0.0,79,0.00,,---,0.00,VWS V14.00,2013-03-28 10:25:00,
2013-03-28 06:30:00,31.4,25.6,30.28,ENE,62,0.0,0.0,79,0.00,,---,0.00,VWS V14.00,2013-03-28 10:30:00,
2013-03-28 06:35:00,31.2,25.5,30.28,ENE,62,0.0,0.0,79,0.00,,---,0.00,VWS V14.00,2013-03-28 10:35:00,
2013-03-28 06:40:00,31.2,25.8,30.28,ENE,62,0.0,0.0,80,0.00,,---,0.00,VWS V14.00,2013-03-28 10:40:00,
2013-03-28 06:45:00,31.0,25.6,30.28,ENE,62,0.0,0.0,80,0.00,,---,0.00,VWS V14.00,2013-03-28 10:45:00,
2013-03-28 06:50:00,30.9,25.5,30.28,ENE,62,0.0,0.0,80,0.00,,---,0.00,VWS V14.00,2013-03-28 10:50:00,
2013-03-28 06:55:00,30.8,25.4,30.28,ENE,62,0.0,0.0,80,0.00,,---,0.00,VWS V14.00,2013-03-28 10:55:00,
2013-03-28 07:00:00,30.6,25.2,30.28,ENE,62,0.0,0.0,80,0.00,,---,0.00,VWS V14.00,2013-03-28 11:00:00,
2013-03-28 07:05:00,30.5,25.1,30.28,ENE,62,0.0,0.0,80,0.00,,---,0.00,VWS V14.00,2013-03-28 11:05:00,
2013-03-28 07:10:00,30.2,25.1,30.28,ENE,62,0.0,0.0,81,0.00,,---,0.00,VWS V14.00,2013-03-28 11:10:00,
2013-03-28 07:15:00,30.1,25.0,30.29,ENE,62,0.0,0.0,81,0.00,,---,0.00,VWS V14.00,2013-03-28 11:15:00,
2013-03-28 07:20:00,29.9,25.1,30.29,ENE,62,0.0,0.0,82,0.00,,---,0.00,VWS V14.00,2013-03-28 11:20:00,
2013-03-28 07:25:00,29.8,25.0,30.29,ENE,62,0.0,0.0,82,0.00,,---,0.00,VWS V14.00,2013-03-28 11:25:00,
2013-03-28 07:30:00,29.7,25.2,30.29,ENE,62,0.0,0.0,83,0.00,,---,0.00,VWS V14.00,2013-03-28 11:30:00,
2013-03-28 07:35:00,29.6,25.1,30.29,ENE,62,0.0,0.0,83,0.00,,---,0.00,VWS V14.00,2013-03-28 11:35:00,
2013-03-28 07:40:00,29.5,25.3,30.30,ENE,62,0.0,0.0,84,0.00,,---,0.00,VWS V14.00,2013-03-28 11:40:00,
2013-03-28 07:45:00,29.5,25.3,30.30,ENE,62,0.0,0.0,84,0.00,,---,0.00,VWS V14.00,2013-03-28 11:45:00,
2013-03-28 07:50:00,29.7,25.5,30.30,ENE,62,0.0,0.0,84,0.00,,---,0.00,VWS V14.00,2013-03-28 11:50:00,
2013-03-28 07:55:00,30.1,26.1,30.30,ENE,62,0.0,0.0,85,0.00,,---,0.00,VWS V14.00,2013-03-28 11:55:00,
2013-03-28 08:00:00,30.5,26.5,30.30,ENE,62,0.0,0.0,85,0.00,,---,0.00,VWS V14.00,2013-03-28 12:00:00,
2013-03-28 08:05:00,31.0,27.0,30.31,ENE,62,0.0,0.0,85,0.00,,---,0.00,VWS V14.00,2013-03-28 12:05:00,
2013-03-28 08:10:00,31.5,27.2,30.31,ENE,62,0.0,1.0,84,0.00,,---,0.00,VWS V14.00,2013-03-28 12:10:00,
2013-03-28 08:15:00,32.2,27.3,30.31,ENE,62,0.0,2.0,82,0.00,,---,0.00,VWS V14.00,2013-03-28 12:15:00,
2013-03-28 08:20:00,33.1,27.6,30.31,ENE,62,0.0,2.0,80,0.00,,---,0.00,VWS V14.00,2013-03-28 12:20:00,
2013-03-28 08:25:00,33.9,27.8,30.31,ENE,60,0.0,2.0,78,0.00,,---,0.00,VWS V14.00,2013-03-28 12:25:00,
2013-03-28 08:30:00,34.6,28.1,30.31,ENE,60,0.0,0.0,77,0.00,,---,0.00,VWS V14.00,2013-03-28 12:30:00,
2013-03-28 08:35:00,35.4,28.6,30.31,ENE,60,0.0,1.0,76,0.00,,---,0.00,VWS V14.00,2013-03-28 12:35:00,
2013-03-28 08:40:00,36.2,29.0,30.31,ENE,60,0.0,1.0,75,0.00,,---,0.00,VWS V14.00,2013-03-28 12:40:00,
2013-03-28 08:45:00,37.0,29.5,30.31,ENE,60,0.0,1.0,74,0.00,,---,0.00,VWS V14.00,2013-03-28 12:45:00,
2013-03-28 08:50:00,37.9,29.4,30.31,ENE,60,0.0,1.0,71,0.00,,---,0.00,VWS V14.00,2013-03-28 12:50:00,
2013-03-28 08:55:00,38.8,29.2,30.31,ENE,60,0.0,2.0,68,0.00,,---,0.00,VWS V14.00,2013-03-28 12:55:00,
2013-03-28 09:00:00,39.6,29.6,30.32,ENE,60,0.0,1.0,67,0.00,,---,0.00,VWS V14.00,2013-03-28 13:00:00,
2013-03-28 09:05:00,40.3,29.5,30.32,ENE,60,0.0,2.0,65,0.00,,---,0.00,VWS V14.00,2013-03-28 13:05:00,
2013-03-28 09:10:00,40.9,28.5,30.32,ENE,60,0.0,3.0,61,0.00,,---,0.00,VWS V14.00,2013-03-28 13:10:00,
2013-03-28 09:15:00,41.3,28.9,30.32,ENE,59,3.0,3.0,61,0.00,,---,0.00,VWS V14.00,2013-03-28 13:15:00,
2013-03-28 09:20:00,41.7,28.0,30.32,ENE,57,0.0,4.0,58,0.00,,---,0.00,VWS V14.00,2013-03-28 13:20:00,
2013-03-28 09:25:00,42.0,27.5,30.32,NE,56,1.0,4.0,56,0.00,,---,0.00,VWS V14.00,2013-03-28 13:25:00,
2013-03-28 09:30:00,42.4,27.8,30.32,NE,55,1.0,3.0,56,0.00,,---,0.00,VWS V14.00,2013-03-28 13:30:00,
2013-03-28 09:35:00,42.7,28.5,30.32,NE,53,1.0,3.0,57,0.00,,---,0.00,VWS V14.00,2013-03-28 13:35:00,
2013-03-28 09:40:00,43.0,28.8,30.32,NE,53,2.0,3.0,57,0.00,,---,0.00,VWS V14.00,2013-03-28 13:40:00,
2013-03-28 09:45:00,43.4,27.9,30.32,ESE,113,4.0,5.0,54,0.00,,---,0.00,VWS V14.00,2013-03-28 13:45:00,
2013-03-28 09:50:00,44.1,28.1,30.32,SE,140,2.0,6.0,53,0.00,,---,0.00,VWS V14.00,2013-03-28 13:50:00,
2013-03-28 09:55:00,44.4,28.4,30.32,SE,132,0.0,6.0,53,0.00,,---,0.00,VWS V14.00,2013-03-28 13:55:00,
2013-03-28 10:00:00,44.7,28.2,30.32,SE,130,0.0,4.0,52,0.00,,---,0.00,VWS V14.00,2013-03-28 14:00:00,
2013-03-28 10:05:00,45.2,28.6,30.32,East,90,4.0,6.0,52,0.00,,---,0.00,VWS V14.00,2013-03-28 14:05:00,
2013-03-28 10:10:00,45.7,27.1,30.32,NE,37,2.0,8.0,48,0.00,,---,0.00,VWS V14.00,2013-03-28 14:10:00,
2013-03-28 10:15:00,46.0,27.9,30.32,NE,44,4.0,8.0,49,0.00,,---,0.00,VWS V14.00,2013-03-28 14:15:00,
2013-03-28 10:20:00,46.5,28.4,30.32,ESE,115,6.0,8.0,49,0.00,,---,0.00,VWS V14.00,2013-03-28 14:20:00,
2013-03-28 10:25:00,47.0,27.8,30.32,NE,50,3.0,8.0,47,0.00,,---,0.00,VWS V14.00,2013-03-28 14:25:00,
2013-03-28 10:30:00,47.0,28.3,30.32,East,80,3.0,8.0,48,0.00,,---,0.00,VWS V14.00,2013-03-28 14:30:00,
2013-03-28 10:35:00,47.2,27.5,30.32,East,94,4.0,8.0,46,0.00,,---,0.00,VWS V14.00,2013-03-28 14:35:00,
2013-03-28 10:40:00,47.4,26.6,30.32,East,90,0.0,8.0,44,0.00,,---,0.00,VWS V14.00,2013-03-28 14:40:00,
2013-03-28 10:45:00,47.7,27.4,30.32,NNE,17,0.0,8.0,45,0.00,,---,0.00,VWS V14.00,2013-03-28 14:45:00,
2013-03-28 10:50:00,47.8,28.0,30.32,ESE,107,1.0,8.0,46,0.00,,---,0.00,VWS V14.00,2013-03-28 14:50:00,
2013-03-28 10:55:00,48.2,26.8,30.32,ESE,110,0.0,8.0,43,0.00,,---,0.00,VWS V14.00,2013-03-28 14:55:00,
2013-03-28 11:00:00,48.4,27.5,30.32,ESE,112,0.0,1.0,44,0.00,,---,0.00,VWS V14.00,2013-03-28 15:00:00,
2013-03-28 11:05:00,48.6,27.7,30.32,NE,56,5.0,7.0,44,0.00,,---,0.00,VWS V14.00,2013-03-28 15:05:00,
2013-03-28 11:10:00,48.6,26.6,30.32,NNE,22,3.0,7.0,42,0.00,,---,0.00,VWS V14.00,2013-03-28 15:10:00,
2013-03-28 11:15:00,48.6,26.6,30.32,NE,41,4.0,10.0,42,0.00,,---,0.00,VWS V14.00,2013-03-28 15:15:00,
2013-03-28 11:20:00,48.6,27.1,30.32,SSW,211,2.0,10.0,43,0.00,,---,0.00,VWS V14.00,2013-03-28 15:20:00,
2013-03-28 11:25:00,48.9,26.8,30.32,NNE,26,0.0,10.0,42,0.00,,---,0.00,VWS V14.00,2013-03-28 15:25:00,
2013-03-28 11:30:00,49.1,27.0,30.32,ENE,69,0.0,5.0,42,0.00,,---,0.00,VWS V14.00,2013-03-28 15:30:00,
2013-03-28 11:35:00,49.6,28.6,30.32,WNW,296,0.0,6.0,44,0.00,,---,0.00,VWS V14.00,2013-03-28 15:35:00,
2013-03-28 11:40:00,50.4,27.6,30.32,WSW,254,2.0,6.0,41,0.00,,---,0.00,VWS V14.00,2013-03-28 15:40:00,
2013-03-28 11:45:00,51.1,28.2,30.32,WSW,252,0.0,6.0,41,0.00,,---,0.00,VWS V14.00,2013-03-28 15:45:00,
2013-03-28 11:50:00,51.4,27.9,30.31,WNW,296,0.0,6.0,40,0.00,,---,0.00,VWS V14.00,2013-03-28 15:50:00,
2013-03-28 11:55:00,51.5,27.4,30.31,NNE,21,1.0,6.0,39,0.00,,---,0.00,VWS V14.00,2013-03-28 15:55:00,
2013-03-28 12:00:00,51.7,28.2,30.31,NW,311,2.0,6.0,40,0.00,,---,0.00,VWS V14.00,2013-03-28 16:00:00,
2013-03-28 12:05:00,51.9,27.1,30.31,NNW,330,1.0,11.0,38,0.00,,---,0.00,VWS V14.00,2013-03-28 16:05:00,
2013-03-28 12:10:00,52.1,28.5,30.31,WNW,286,0.0,11.0,40,0.00,,---,0.00,VWS V14.00,2013-03-28 16:10:00,
2013-03-28 12:15:00,52.5,27.6,30.31,NW,323,0.0,11.0,38,0.00,,---,0.00,VWS V14.00,2013-03-28 16:15:00,
2013-03-28 12:20:00,52.4,28.2,30.31,North,349,1.0,11.0,39,0.00,,---,0.00,VWS V14.00,2013-03-28 16:20:00,
2013-03-28 12:25:00,52.4,28.2,30.31,North,11,2.0,11.0,39,0.00,,---,0.00,VWS V14.00,2013-03-28 16:25:00,
2013-03-28 12:30:00,52.2,28.0,30.30,North,5,3.0,7.0,39,0.00,,---,0.00,VWS V14.00,2013-03-28 16:30:00,
2013-03-28 12:35:00,52.0,28.5,30.30,East,90,2.0,8.0,40,0.00,,---,0.00,VWS V14.00,2013-03-28 16:35:00,
2013-03-28 12:40:00,52.2,29.2,30.29,ENE,76,1.0,8.0,41,0.00,,---,0.00,VWS V14.00,2013-03-28 16:40:00,
2013-03-28 12:45:00,53.0,29.3,30.29,WNW,299,2.0,8.0,40,0.00,,---,0.00,VWS V14.00,2013-03-28 16:45:00,
2013-03-28 12:50:00,53.8,28.8,30.29,WNW,288,5.0,8.0,38,0.00,,---,0.00,VWS V14.00,2013-03-28 16:50:00,
2013-03-28 12:55:00,54.2,28.5,30.29,NW,323,0.0,8.0,37,0.00,,---,0.00,VWS V14.00,2013-03-28 16:55:00,
2013-03-28 13:00:00,54.3,28.6,30.29,NW,319,0.0,4.0,37,0.00,,---,0.00,VWS V14.00,2013-03-28 17:00:00,
2013-03-28 13:05:00,54.9,29.1,30.28,West,272,4.0,5.0,37,0.00,,---,0.00,VWS V14.00,2013-03-28 17:05:00,
2013-03-28 13:10:00,55.4,28.2,30.28,North,360,4.0,8.0,35,0.00,,---,0.00,VWS V14.00,2013-03-28 17:10:00,
2013-03-28 13:15:00,55.5,26.9,30.28,NNE,27,1.0,8.0,33,0.00,,---,0.00,VWS V14.00,2013-03-28 17:15:00,
2013-03-28 13:20:00,55.3,26.7,30.28,NNW,348,4.0,10.0,33,0.00,,---,0.00,VWS V14.00,2013-03-28 17:20:00,
2013-03-28 13:25:00,55.4,28.2,30.27,North,5,0.0,10.0,35,0.00,,---,0.00,VWS V14.00,2013-03-28 17:25:00,
2013-03-28 13:30:00,56.1,25.9,30.27,NW,319,2.0,8.0,31,0.00,,---,0.00,VWS V14.00,2013-03-28 17:30:00,
2013-03-28 13:35:00,56.6,25.5,30.27,WSW,242,4.0,8.0,30,0.00,,---,0.00,VWS V14.00,2013-03-28 17:35:00,
2013-03-28 13:40:00,57.1,26.0,30.27,NNW,344,2.0,8.0,30,0.00,,---,0.00,VWS V14.00,2013-03-28 17:40:00,
2013-03-28 13:45:00,57.1,27.5,30.27,NNW,345,7.0,10.0,32,0.00,,---,0.00,VWS V14.00,2013-03-28 17:45:00,
2013-03-28 13:50:00,56.9,26.6,30.26,NNE,29,5.0,12.0,31,0.00,,---,0.00,VWS V14.00,2013-03-28 17:50:00,
2013-03-28 13:55:00,56.8,28.0,30.26,NNE,23,1.0,12.0,33,0.00,,---,0.00,VWS V14.00,2013-03-28 17:55:00,
2013-03-28 14:00:00,57.3,28.5,30.26,WNW,284,0.0,6.0,33,0.00,,---,0.00,VWS V14.00,2013-03-28 18:00:00,
2013-03-28 14:05:00,58.1,27.6,30.26,SW,234,3.0,7.0,31,0.00,,---,0.00,VWS V14.00,2013-03-28 18:05:00,
2013-03-28 14:10:00,58.5,28.8,30.26,WSW,239,3.0,8.0,32,0.00,,---,0.00,VWS V14.00,2013-03-28 18:10:00,
2013-03-28 14:15:00,58.9,27.5,30.25,NW,307,5.0,8.0,30,0.00,,---,0.00,VWS V14.00,2013-03-28 18:15:00,
2013-03-28 14:20:00,58.9,25.9,30.25,NNW,328,0.0,10.0,28,0.00,,---,0.00,VWS V14.00,2013-03-28 18:20:00,
2013-03-28 14:25:00,58.9,28.3,30.25,NNW,338,2.0,10.0,31,0.00,,---,0.00,VWS V14.00,2013-03-28 18:25:00,
2013-03-28 14:30:00,59.0,27.6,30.25,WSW,257,2.0,5.0,30,0.00,,---,0.00,VWS V14.00,2013-03-28 18:30:00,
2013-03-28 14:35:00,59.1,26.9,30.25,NE,34,5.0,5.0,29,0.00,,---,0.00,VWS V14.00,2013-03-28 18:35:00,
2013-03-28 14:40:00,59.1,26.9,30.24,NNW,327,1.0,5.0,29,0.00,,---,0.00,VWS V14.00,2013-03-28 18:40:00,
2013-03-28 14:45:00,59.0,28.4,30.24,NNE,24,1.0,6.0,31,0.00,,---,0.00,VWS V14.00,2013-03-28 18:45:00,
2013-03-28 14:50:00,59.2,27.0,30.23,NNW,348,1.0,6.0,29,0.00,,---,0.00,VWS V14.00,2013-03-28 18:50:00,
2013-03-28 14:55:00,59.5,25.5,30.23,West,259,1.0,8.0,27,0.00,,---,0.00,VWS V14.00,2013-03-28 18:55:00,
2013-03-28 15:00:00,60.0,26.0,30.23,NNW,340,2.0,8.0,27,0.00,,---,0.00,VWS V14.00,2013-03-28 19:00:00,
2013-03-28 15:05:00,60.3,26.2,30.23,North,360,0.0,8.0,27,0.00,,---,0.00,VWS V14.00,2013-03-28 19:05:00,
2013-03-28 15:10:00,60.3,27.1,30.23,WNW,287,0.0,10.0,28,0.00,,---,0.00,VWS V14.00,2013-03-28 19:10:00,
2013-03-28 15:16:00,60.6,26.5,30.23,NW,315,8.0,8.0,27,0.00,,---,0.00,VWS V14.00,2013-03-28 19:16:00,
2013-03-28 15:21:00,60.3,26.2,30.22,North,350,0.0,10.0,27,0.00,,---,0.00,VWS V14.00,2013-03-28 19:21:00,
2013-03-28 15:26:00,60.5,25.5,30.22,NW,325,1.0,10.0,26,0.00,,---,0.00,VWS V14.00,2013-03-28 19:26:00,
2013-03-28 15:31:00,60.9,24.9,30.22,NW,315,1.0,8.0,25,0.00,,---,0.00,VWS V14.00,2013-03-28 19:31:00,
2013-03-28 15:36:00,61.1,26.0,30.22,NNW,342,1.0,9.0,26,0.00,,---,0.00,VWS V14.00,2013-03-28 19:36:00,
2013-03-28 15:42:00,60.9,26.7,30.22,NNW,328,4.0,10.0,27,0.00,,---,0.00,VWS V14.00,2013-03-28 19:42:00,
2013-03-28 15:47:00,60.8,25.7,30.22,North,5,4.0,10.0,26,0.00,,---,0.00,VWS V14.00,2013-03-28 19:47:00,
2013-03-28 15:52:00,60.9,24.9,30.21,NNE,32,4.0,10.0,25,0.00,,---,0.00,VWS V14.00,2013-03-28 19:52:00,
2013-03-28 15:57:00,60.8,25.7,30.21,West,270,2.0,12.0,26,0.00,,---,0.00,VWS V14.00,2013-03-28 19:57:00,
2013-03-28 16:02:00,60.9,25.8,30.20,NE,55,4.0,10.0,26,0.00,,---,0.00,VWS V14.00,2013-03-28 20:02:00,
2013-03-28 16:07:00,61.2,26.1,30.20,North,11,3.0,10.0,26,0.00,,---,0.00,VWS V14.00,2013-03-28 20:07:00,
2013-03-28 16:12:00,60.9,24.9,30.20,NNE,32,6.0,12.0,25,0.00,,---,0.00,VWS V14.00,2013-03-28 20:12:00,
2013-03-28 16:17:00,60.5,25.5,30.20,WNW,285,1.0,12.0,26,0.00,,---,0.00,VWS V14.00,2013-03-28 20:17:00,
2013-03-28 16:22:00,61.0,25.0,30.20,WNW,297,4.0,12.0,25,0.00,,---,0.00,VWS V14.00,2013-03-28 20:22:00,
2013-03-28 16:27:00,61.3,25.2,30.20,North,355,0.0,0.0,25,0.00,,---,0.00,VWS V14.00,2013-03-28 20:27:00,
2013-03-28 16:32:00,61.2,26.1,30.20,NNE,15,3.0,7.0,26,0.00,,---,0.00,VWS V14.00,2013-03-28 20:32:00,
2013-03-28 16:37:00,61.1,26.0,30.19,NE,42,0.0,7.0,26,0.00,,---,0.00,VWS V14.00,2013-03-28 20:37:00,
2013-03-28 16:42:00,61.4,25.3,30.19,WNW,289,0.0,10.0,25,0.00,,---,0.00,VWS V14.00,2013-03-28 20:42:00,
2013-03-28 16:47:00,61.5,27.2,30.19,NW,310,1.0,12.0,27,0.00,,---,0.00,VWS V14.00,2013-03-28 20:47:00,
2013-03-28 16:52:00,61.8,25.6,30.19,West,267,4.0,13.0,25,0.00,,---,0.00,VWS V14.00,2013-03-28 20:52:00,
2013-03-28 16:57:00,62.0,25.8,30.19,NW,316,1.0,1.0,25,0.00,,---,0.00,VWS V14.00,2013-03-28 20:57:00,
2013-03-28 17:02:00,62.0,25.8,30.19,North,10,1.0,5.0,25,0.00,,---,0.00,VWS V14.00,2013-03-28 21:02:00,
2013-03-28 17:07:00,61.8,25.6,30.19,NNE,13,4.0,7.0,25,0.00,,---,0.00,VWS V14.00,2013-03-28 21:07:00,
2013-03-28 17:12:00,61.4,26.2,30.19,NE,46,4.0,12.0,26,0.00,,---,0.00,VWS V14.00,2013-03-28 21:12:00,
2013-03-28 17:17:00,61.3,25.2,30.18,NNE,33,0.0,12.0,25,0.00,,---,0.00,VWS V14.00,2013-03-28 21:17:00,
2013-03-28 17:22:00,61.3,27.1,30.18,NE,49,0.0,12.0,27,0.00,,---,0.00,VWS V14.00,2013-03-28 21:22:00,
2013-03-28 17:27:00,61.4,26.2,30.18,NE,54,0.0,0.0,26,0.00,,---,0.00,VWS V14.00,2013-03-28 21:27:00,
2013-03-28 17:32:00,61.5,27.2,30.19,NW,309,0.0,6.0,27,0.00,,---,0.00,VWS V14.00,2013-03-28 21:32:00,
2013-03-28 17:37:00,61.5,26.3,30.18,North,360,2.0,6.0,26,0.00,,---,0.00,VWS V14.00,2013-03-28 21:37:00,
2013-03-28 17:42:00,61.4,28.0,30.18,NE,46,5.0,6.0,28,0.00,,---,0.00,VWS V14.00,2013-03-28 21:42:00,
2013-03-28 17:47:00,61.2,26.1,30.19,ESE,119,2.0,11.0,26,0.00,,---,0.00,VWS V14.00,2013-03-28 21:47:00,
2013-03-28 17:52:00,61.1,28.6,30.18,ESE,115,2.0,11.0,29,0.00,,---,0.00,VWS V14.00,2013-03-28 21:52:00,
2013-03-28 17:57:00,61.1,26.9,30.19,East,101,0.0,0.0,27,0.00,,---,0.00,VWS V14.00,2013-03-28 21:57:00,
2013-03-28 18:02:00,61.1,26.9,30.19,East,90,0.0,4.0,27,0.00,,---,0.00,VWS V14.00,2013-03-28 22:02:00,
2013-03-28 18:07:00,61.1,26.9,30.19,East,90,0.0,4.0,27,0.00,,---,0.00,VWS V14.00,2013-03-28 22:07:00,
2013-03-28 18:12:00,61.2,27.0,30.19,NE,47,0.0,6.0,27,0.00,,---,0.00,VWS V14.00,2013-03-28 22:12:00,
2013-03-28 18:17:00,61.1,26.9,30.19,NE,47,0.0,6.0,27,0.00,,---,0.00,VWS V14.00,2013-03-28 22:17:00,
2013-03-28 18:22:00,61.0,28.5,30.19,NE,47,0.0,6.0,29,0.00,,---,0.00,VWS V14.00,2013-03-28 22:22:00,
2013-03-28 18:27:00,60.9,26.7,30.19,NE,47,1.0,1.0,27,0.00,,---,0.00,VWS V14.00,2013-03-28 22:27:00,
2013-03-28 18:32:00,60.7,26.5,30.18,NE,47,0.0,4.0,27,0.00,,---,0.00,VWS V14.00,2013-03-28 22:32:00,
2013-03-28 18:37:00,60.5,26.4,30.18,NE,47,0.0,4.0,27,0.00,,---,0.00,VWS V14.00,2013-03-28 22:37:00,
2013-03-28 18:42:00,60.3,27.1,30.18,NE,47,2.0,4.0,28,0.00,,---,0.00,VWS V14.00,2013-03-28 22:42:00,
2013-03-28 18:47:00,60.2,27.0,30.19,East,94,2.0,5.0,28,0.00,,---,0.00,VWS V14.00,2013-03-28 22:47:00,
2013-03-28 18:52:00,60.0,26.8,30.19,East,94,0.0,5.0,28,0.00,,---,0.00,VWS V14.00,2013-03-28 22:52:00,
2013-03-28 18:57:00,59.8,27.5,30.19,East,94,1.0,1.0,29,0.00,,---,0.00,VWS V14.00,2013-03-28 22:57:00,
2013-03-28 19:02:00,59.6,28.1,30.19,East,94,0.0,4.0,30,0.00,,---,0.00,VWS V14.00,2013-03-28 23:02:00,
2013-03-28 19:07:00,59.4,27.2,30.19,East,94,0.0,4.0,29,0.00,,---,0.00,VWS V14.00,2013-03-28 23:07:00,
2013-03-28 19:12:00,59.3,26.2,30.19,East,94,0.0,4.0,28,0.00,,---,0.00,VWS V14.00,2013-03-28 23:12:00,
2013-03-28 19:17:00,59.1,29.3,30.19,East,94,0.0,4.0,32,0.00,,---,0.00,VWS V14.00,2013-03-28 23:17:00,
2013-03-28 19:22:00,58.8,27.5,30.19,East,94,0.0,4.0,30,0.00,,---,0.00,VWS V14.00,2013-03-28 23:22:00,
2013-03-28 19:27:00,58.6,27.3,30.19,East,94,0.0,0.0,30,0.00,,---,0.00,VWS V14.00,2013-03-28 23:27:00,
2013-03-28 19:32:00,58.4,30.2,30.19,East,94,0.0,0.0,34,0.00,,---,0.00,VWS V14.00,2013-03-28 23:32:00,
2013-03-28 19:37:00,58.0,29.8,30.19,East,94,0.0,0.0,34,0.00,,---,0.00,VWS V14.00,2013-03-28 23:37:00,
2013-03-28 19:42:00,57.4,30.0,30.19,East,94,0.0,0.0,35,0.00,,---,0.00,VWS V14.00,2013-03-28 23:42:00,
2013-03-28 19:47:00,56.7,30.7,30.20,East,94,0.0,0.0,37,0.00,,---,0.00,VWS V14.00,2013-03-28 23:47:00,
2013-03-28 19:52:00,56.0,30.8,30.19,East,94,0.0,0.0,38,0.00,,---,0.00,VWS V14.00,2013-03-28 23:52:00,
2013-03-28 19:57:00,55.4,30.9,30.20,East,94,0.0,0.0,39,0.00,,---,0.00,VWS V14.00,2013-03-28 23:57:00,
2013-03-28 20:02:00,54.7,31.5,30.20,East,94,0.0,0.0,41,0.00,,---,0.00,VWS V14.00,2013-03-29 00:02:00,
2013-03-28 20:07:00,54.2,31.0,30.20,East,94,0.0,0.0,41,0.00,,---,0.00,VWS V14.00,2013-03-29 00:07:00,
2013-03-28 20:12:00,53.6,31.7,30.20,East,94,0.0,0.0,43,0.00,,---,0.00,VWS V14.00,2013-03-29 00:12:00,
2013-03-28 20:17:00,53.0,31.7,30.20,East,94,0.0,0.0,44,0.00,,---,0.00,VWS V14.00,2013-03-29 00:17:00,
2013-03-28 20:22:00,52.4,31.1,30.20,East,94,0.0,0.0,44,0.00,,---,0.00,VWS V14.00,2013-03-29 00:22:00,
2013-03-28 20:27:00,51.8,30.0,30.21,East,94,0.0,0.0,43,0.00,,---,0.00,VWS V14.00,2013-03-29 00:27:00,
2013-03-28 20:32:00,51.4,29.7,30.21,East,94,0.0,0.0,43,0.00,,---,0.00,VWS V14.00,2013-03-29 00:32:00,
2013-03-28 20:37:00,51.0,29.9,30.21,East,94,0.0,0.0,44,0.00,,---,0.00,VWS V14.00,2013-03-29 00:37:00,
2013-03-28 20:42:00,50.5,30.0,30.21,East,94,0.0,0.0,45,0.00,,---,0.00,VWS V14.00,2013-03-29 00:42:00,
2013-03-28 20:47:00,50.0,30.0,30.21,East,94,0.0,0.0,46,0.00,,---,0.00,VWS V14.00,2013-03-29 00:47:00,
2013-03-28 20:52:00,49.6,29.7,30.21,East,94,0.0,0.0,46,0.00,,---,0.00,VWS V14.00,2013-03-29 00:52:00,
2013-03-28 20:57:00,49.3,29.9,30.21,East,94,0.0,0.0,47,0.00,,---,0.00,VWS V14.00,2013-03-29 00:57:00,
2013-03-28 21:02:00,49.0,29.7,30.22,East,94,0.0,0.0,47,0.00,,---,0.00,VWS V14.00,2013-03-29 01:02:00,
2013-03-28 21:07:00,48.7,30.9,30.22,East,94,0.0,0.0,50,0.00,,---,0.00,VWS V14.00,2013-03-29 01:07:00,
2013-03-28 21:12:00,48.5,31.2,30.22,East,94,0.0,1.0,51,0.00,,---,0.00,VWS V14.00,2013-03-29 01:12:00,
2013-03-28 21:17:00,48.3,31.0,30.22,East,94,0.0,1.0,51,0.00,,---,0.00,VWS V14.00,2013-03-29 01:17:00,
2013-03-28 21:22:00,48.0,31.7,30.22,East,94,0.0,1.0,53,0.00,,---,0.00,VWS V14.00,2013-03-29 01:22:00,
2013-03-28 21:27:00,47.8,31.5,30.22,East,94,0.0,0.0,53,0.00,,---,0.00,VWS V14.00,2013-03-29 01:27:00,
2013-03-28 21:32:00,47.5,31.7,30.23,East,94,0.0,0.0,54,0.00,,---,0.00,VWS V14.00,2013-03-29 01:32:00,
2013-03-28 21:37:00,47.1,30.4,30.23,East,94,0.0,0.0,52,0.00,,---,0.00,VWS V14.00,2013-03-29 01:37:00,
2013-03-28 21:42:00,47.0,31.7,30.23,East,94,0.0,0.0,55,0.00,,---,0.00,VWS V14.00,2013-03-29 01:42:00,
2013-03-28 21:47:00,46.8,31.0,30.23,East,94,0.0,0.0,54,0.00,,---,0.00,VWS V14.00,2013-03-29 01:47:00,
2013-03-28 21:52:00,46.8,31.0,30.23,East,94,0.0,1.0,54,0.00,,---,0.00,VWS V14.00,2013-03-29 01:52:00,
2013-03-28 21:57:00,46.7,30.0,30.23,East,94,0.0,0.0,52,0.00,,---,0.00,VWS V14.00,2013-03-29 01:57:00,
2013-03-28 22:02:00,46.7,31.0,30.24,East,94,0.0,0.0,54,0.00,,---,0.00,VWS V14.00,2013-03-29 02:02:00,
2013-03-28 22:07:00,46.5,30.3,30.24,East,94,0.0,0.0,53,0.00,,---,0.00,VWS V14.00,2013-03-29 02:07:00,
2013-03-28 22:13:00,46.3,31.0,30.24,East,94,0.0,0.0,55,0.00,,---,0.00,VWS V14.00,2013-03-29 02:13:00,
2013-03-28 22:20:00,45.8,31.0,30.25,East,94,0.0,0.0,56,0.00,,---,0.00,VWS V14.00,2013-03-29 02:20:00,
2013-03-28 22:25:00,45.6,32.1,30.24,East,94,0.0,0.0,59,0.00,,---,0.00,VWS V14.00,2013-03-29 02:25:00,
2013-03-28 22:30:00,45.4,32.3,30.25,East,94,0.0,0.0,60,0.00,,---,0.00,VWS V14.00,2013-03-29 02:30:00,
2013-03-28 22:35:00,45.2,32.2,30.25,East,94,0.0,1.0,60,0.00,,---,0.00,VWS V14.00,2013-03-29 02:35:00,
2013-03-28 22:40:00,45.1,31.2,30.25,East,94,0.0,1.0,58,0.00,,---,0.00,VWS V14.00,2013-03-29 02:40:00,
2013-03-28 22:45:00,45.0,30.7,30.25,East,94,0.0,1.0,57,0.00,,---,0.00,VWS V14.00,2013-03-29 02:45:00,
2013-03-28 22:50:00,45.1,30.4,30.25,East,94,0.0,1.0,56,0.00,,---,0.00,VWS V14.00,2013-03-29 02:50:00,
2013-03-28 22:55:00,45.6,30.8,30.25,East,94,0.0,1.0,56,0.00,,---,0.00,VWS V14.00,2013-03-29 02:55:00,
2013-03-28 23:00:00,46.1,30.9,30.26,East,94,0.0,1.0,55,0.00,,---,0.00,VWS V14.00,2013-03-29 03:00:00,
2013-03-28 23:05:00,46.6,31.3,30.26,East,93,0.0,1.0,55,0.00,,---,0.00,VWS V14.00,2013-03-29 03:05:00,
2013-03-28 23:10:00,46.9,31.1,30.26,East,92,1.0,1.0,54,0.00,,---,0.00,VWS V14.00,2013-03-29 03:10:00,
2013-03-28 23:15:00,47.0,31.2,30.26,East,94,0.0,1.0,54,0.00,,---,0.00,VWS V14.00,2013-03-29 03:15:00,
2013-03-28 23:20:00,47.2,31.4,30.26,East,93,0.0,2.0,54,0.00,,---,0.00,VWS V14.00,2013-03-29 03:20:00,
2013-03-28 23:25:00,47.3,31.5,30.26,East,93,0.0,2.0,54,0.00,,---,0.00,VWS V14.00,2013-03-29 03:25:00,
2013-03-28 23:30:00,47.2,31.4,30.26,East,93,0.0,1.0,54,0.00,,---,0.00,VWS V14.00,2013-03-29 03:30:00,
2013-03-28 23:35:00,47.2,31.9,30.26,East,93,0.0,1.0,55,0.00,,---,0.00,VWS V14.00,2013-03-29 03:35:00,
2013-03-28 23:40:00,47.0,31.2,30.26,East,93,0.0,1.0,54,0.00,,---,0.00,VWS V14.00,2013-03-29 03:40:00,
2013-03-28 23:45:00,46.9,31.6,30.26,East,93,0.0,1.0,55,0.00,,---,0.00,VWS V14.00,2013-03-29 03:45:00,
2013-03-28 23:50:00,46.8,31.5,30.26,East,93,0.0,1.0,55,0.00,,---,0.00,VWS V14.00,2013-03-29 03:50:00,
2013-03-28 23:55:00,46.6,31.3,30.26,East,93,0.0,1.0,55,0.00,,---,0.00,VWS V14.00,2013-03-29 03:55:00,